| time (UTC) | temp C | wind direction | speed KPH | gust KPH | rain 1hr cm | rain 24hr cm | rain mn cm | humidity % | barometer mb |
| 20260510071533 | 23 | 148 | 0.0 | 3.2 | 0.00 | 0.00 | 0.00 | 91 | 1008.8 |
| 20260510070025 | 24 | 134 | 0.0 | 3.2 | 0.00 | 0.00 | 0.00 | 91 | 1009.0 |
| 20260510064545 | 24 | 123 | 0.0 | 1.6 | 0.00 | 0.00 | 0.00 | 90 | 1008.9 |
| 20260510063022 | 24 | 96 | 0.0 | 1.6 | 0.00 | 0.00 | 0.00 | 89 | 1009.1 |
| 20260510061531 | 24 | 117 | 0.0 | 3.2 | 0.00 | 0.00 | 0.00 | 89 | 1009.3 |
| 20260510060028 | 24 | 152 | 0.0 | 4.8 | 0.00 | 0.00 | 0.00 | 89 | 1009.3 |
| 20260510054517 | 24 | 196 | 0.0 | 0.0 | 0.00 | 0.00 | 0.00 | 90 | 1009.4 |
| 20260510053011 | 25 | 146 | 0.0 | 3.2 | 0.00 | 0.00 | 0.00 | 90 | 1009.4 |
| 20260510051510 | 25 | 134 | 0.0 | 3.2 | 0.00 | 0.00 | 0.00 | 90 | 1009.5 |
| 20260510050007 | 25 | 80 | 1.6 | 12.9 | 0.00 | 0.00 | 0.00 | 89 | 1009.7 |
| 20260510044509 | 25 | 150 | 1.6 | 12.9 | 0.00 | 0.00 | 0.00 | 89 | 1009.8 |
| 20260510043007 | 25 | 120 | 1.6 | 22.5 | 0.00 | 0.00 | 0.00 | 90 | 1010.1 |
| 20260510041506 | 25 | 111 | 14.5 | 29.0 | 0.00 | 0.00 | 0.00 | 90 | 1010.3 |
| 20260510040007 | 25 | 107 | 1.6 | 12.9 | 0.00 | 0.00 | 0.00 | 90 | 1010.4 |
| 20260510034505 | 25 | 108 | 0.0 | 3.2 | 0.00 | 0.00 | 0.00 | 90 | 1010.0 |
| 20260510033004 | 25 | 125 | 0.0 | 11.3 | 0.00 | 0.00 | 0.00 | 90 | 1009.8 |
| 20260510031504 | 25 | 62 | 11.3 | 22.5 | 0.00 | 0.00 | 0.00 | 90 | 1010.1 |
| 20260510030002 | 25 | 66 | 3.2 | 20.9 | 0.00 | 0.00 | 0.00 | 90 | 1009.8 |
| 20260510024601 | 25 | 124 | 9.7 | 24.1 | 0.00 | 0.00 | 0.00 | 88 | 1009.7 |
| 20260510023057 | 26 | 97 | 1.6 | 6.4 | 0.00 | 0.00 | 0.00 | 88 | 1009.3 |
| 20260510021555 | 26 | 98 | 0.0 | 11.3 | 0.00 | 0.00 | 0.00 | 87 | 1009.1 |
| 20260510020054 | 26 | 85 | 1.6 | 4.8 | 0.00 | 0.00 | 0.00 | 84 | 1008.6 |
| 20260510014555 | 26 | 88 | 1.6 | 9.7 | 0.00 | 0.00 | 0.00 | 80 | 1008.2 |
| 20260510013055 | 27 | 153 | 0.0 | 0.0 | 0.00 | 0.00 | 0.00 | 78 | 1007.8 |
| 20260510011552 | 27 | 149 | 0.0 | 1.6 | 0.00 | 0.00 | 0.00 | 76 | 1007.5 |
| 20260510010052 | 27 | 115 | 0.0 | 3.2 | 0.00 | 0.00 | 0.00 | 75 | 1006.7 |
| 20260510004551 | 28 | 156 | 0.0 | 3.2 | 0.00 | 0.00 | 0.00 | 73 | 1006.9 |
| 20260510003057 | 29 | 175 | 0.0 | 1.6 | 0.00 | 0.00 | 0.00 | 64 | 1006.8 |
| 20260510001551 | 29 | 145 | 0.0 | 4.8 | 0.00 | 0.00 | 0.00 | 63 | 1006.7 |
| 20260510000055 | 30 | 138 | 0.0 | 0.0 | 0.00 | 0.00 | 0.00 | 69 | 1006.5 |
| 20260509234602 | 30 | 117 | 0.0 | 1.6 | 0.00 | 0.00 | 0.00 | 68 | 1006.2 |
| 20260509233055 | 30 | 152 | 0.0 | 4.8 | 0.00 | 0.00 | 0.00 | 69 | 1006.2 |
| 20260509231605 | 30 | 148 | 0.0 | 3.2 | 0.00 | 0.00 | 0.00 | 72 | 1006.3 |
| 20260509230054 | 30 | 144 | 0.0 | 3.2 | 0.00 | 0.00 | 0.00 | 72 | 1006.2 |
| 20260509224547 | 30 | 84 | 0.0 | 8.0 | 0.00 | 0.00 | 0.00 | 73 | 1006.1 |
| 20260509223048 | 30 | 74 | 3.2 | 8.0 | 0.00 | 0.00 | 0.00 | 74 | 1006.1 |
| 20260509221546 | 30 | 110 | 3.2 | 12.9 | 0.00 | 0.00 | 0.00 | 74 | 1006.0 |
| 20260509220045 | 31 | 104 | 1.6 | 6.4 | 0.00 | 0.00 | 0.00 | 74 | 1005.9 |
| 20260509214546 | 31 | 83 | 3.2 | 14.5 | 0.00 | 0.00 | 0.00 | 73 | 1005.9 |
| 20260509213046 | 31 | 86 | 3.2 | 19.3 | 0.00 | 0.00 | 0.00 | 72 | 1005.8 |
| 20260509211550 | 32 | 325 | 3.2 | 8.0 | 0.00 | 0.00 | 0.00 | 66 | 1005.9 |
| 20260509210055 | 32 | 245 | 1.6 | 8.0 | 0.00 | 0.00 | 0.00 | 60 | 1005.9 |
| 20260509204538 | 31 | 211 | 1.6 | 9.7 | 0.00 | 0.00 | 0.00 | 66 | 1006.0 |
| 20260509203042 | 31 | 67 | 1.6 | 4.8 | 0.00 | 0.00 | 0.00 | 67 | 1006.1 |
| 20260509201540 | 30 | 70 | 4.8 | 11.3 | 0.00 | 0.00 | 0.00 | 69 | 1006.3 |
| 20260509200034 | 31 | 46 | 4.8 | 9.7 | 0.00 | 0.00 | 0.00 | 71 | 1006.6 |
| 20260509194533 | 32 | 71 | 0.0 | 0.0 | 0.00 | 0.00 | 0.00 | 68 | 1006.6 |
| 20260509193029 | 31 | 203 | 0.0 | 12.9 | 0.00 | 0.00 | 0.00 | 65 | 1006.7 |
| 20260509191527 | 31 | 15 | 4.8 | 8.0 | 0.00 | 0.00 | 0.00 | 67 | 1006.8 |
| 20260509190031 | 31 | 297 | 6.4 | 14.5 | 0.00 | 0.00 | 0.00 | 66 | 1006.9 |
| 20260509184529 | 31 | 304 | 1.6 | 4.8 | 0.00 | 0.00 | 0.00 | 67 | 1007.0 |
| 20260509183028 | 30 | 281 | 1.6 | 8.0 | 0.00 | 0.00 | 0.00 | 71 | 1007.3 |
| 20260509181518 | 29 | 321 | 3.2 | 11.3 | 0.00 | 0.00 | 0.00 | 74 | 1007.6 |
| 20260509180017 | 29 | 342 | 1.6 | 11.3 | 0.00 | 0.00 | 0.00 | 79 | 1007.9 |
| 20260509174508 | 28 | 258 | 1.6 | 9.7 | 0.00 | 0.00 | 0.00 | 80 | 1008.4 |
| 20260509173011 | 28 | 261 | 1.6 | 16.1 | 0.00 | 0.00 | 0.00 | 80 | 1008.5 |
| 20260509171507 | 27 | 196 | 1.6 | 9.7 | 0.00 | 0.00 | 0.00 | 81 | 1008.5 |
| 20260509170004 | 27 | 160 | 3.2 | 12.9 | 0.00 | 0.00 | 0.00 | 82 | 1008.6 |
| 20260509164503 | 27 | 267 | 0.0 | 1.6 | 0.00 | 0.00 | 0.00 | 83 | 1008.7 |
| 20260509163001 | 27 | 208 | 0.0 | 4.8 | 0.00 | 0.00 | 0.00 | 82 | 1008.5 |
| 20260509161559 | 27 | 261 | 0.0 | 3.2 | 0.00 | 0.00 | 0.00 | 85 | 1008.5 |
| 20260509161500 | 27 | 256 | 0.0 | 6.4 | 0.00 | 0.00 | 0.00 | 85 | 1008.5 |
| 20260509160055 | 27 | 206 | 0.0 | 1.6 | 0.00 | 0.00 | 0.00 | 87 | 1008.5 |
| 20260509154605 | 26 | 118 | 0.0 | 1.6 | 0.00 | 0.00 | 0.00 | 89 | 1008.5 |
| 20260509153049 | 25 | 98 | 0.0 | 0.0 | 0.00 | 0.00 | 0.00 | 89 | 1008.0 |
| 20260509151547 | 25 | 48 | 0.0 | 1.6 | 0.00 | 0.00 | 0.00 | 91 | 1008.5 |
| 20260509150050 | 25 | 85 | 0.0 | 0.0 | 0.00 | 0.00 | 0.00 | 93 | 1008.2 |
| 20260509144545 | 25 | 236 | 0.0 | 1.6 | 0.00 | 0.00 | 0.00 | 94 | 1008.4 |
| 20260509143048 | 24 | 220 | 0.0 | 1.6 | 0.00 | 0.00 | 0.00 | 95 | 1008.7 |
| 20260509141540 | 24 | 216 | 0.0 | 9.7 | 0.00 | 0.00 | 0.00 | 96 | 1008.6 |
| 20260509140038 | 24 | 201 | 3.2 | 8.0 | 0.00 | 0.00 | 0.00 | 96 | 1008.5 |
| 20260509134536 | 24 | 258 | 0.0 | 3.2 | 0.00 | 0.00 | 0.00 | 96 | 1008.1 |
| 20260509133034 | 24 | 206 | 0.0 | 6.4 | 0.00 | 0.00 | 0.00 | 96 | 1008.4 |
| 20260509131531 | 24 | 255 | 1.6 | 6.4 | 0.00 | 0.00 | 0.00 | 96 | 1008.6 |
| 20260509130031 | 23 | 204 | 0.0 | 4.8 | 0.00 | 0.00 | 0.00 | 96 | 1008.2 |
| 20260509124538 | 23 | 72 | 0.0 | 0.0 | 0.00 | 0.00 | 0.00 | 96 | 1008.5 |
| 20260509123026 | 23 | 72 | 0.0 | 0.0 | 0.00 | 0.00 | 0.00 | 96 | 1008.5 |
| 20260509121537 | 23 | 72 | 0.0 | 0.0 | 0.00 | 0.00 | 0.00 | 96 | 1008.3 |
| 20260509120022 | 23 | 72 | 0.0 | 0.0 | 0.00 | 0.00 | 0.00 | 96 | 1008.4 |
| 20260509114542 | 23 | 72 | 0.0 | 0.0 | 0.00 | 0.00 | 0.00 | 96 | 1008.3 |
| 20260509113021 | 23 | 72 | 0.0 | 0.0 | 0.00 | 0.00 | 0.00 | 96 | 1008.3 |
| 20260509111520 | 23 | 72 | 0.0 | 0.0 | 0.00 | 0.00 | 0.00 | 96 | 1008.3 |
| 20260509110021 | 23 | 72 | 0.0 | 0.0 | 0.00 | 0.00 | 0.00 | 96 | 1007.9 |
| 20260509104521 | 23 | 72 | 0.0 | 0.0 | 0.00 | 0.00 | 0.00 | 96 | 1007.8 |
| 20260509103019 | 23 | 72 | 0.0 | 0.0 | 0.00 | 0.00 | 0.00 | 96 | 1007.8 |
| 20260509101518 | 23 | 72 | 0.0 | 0.0 | 0.00 | 0.00 | 0.00 | 96 | 1007.7 |
| 20260509100018 | 23 | 72 | 0.0 | 0.0 | 0.00 | 0.00 | 0.00 | 96 | 1007.7 |
| 20260509094523 | 23 | 72 | 0.0 | 0.0 | 0.00 | 0.00 | 0.00 | 95 | 1007.5 |
| 20260509093017 | 23 | 72 | 0.0 | 0.0 | 0.00 | 0.00 | 0.00 | 96 | 1007.5 |
| 20260509091516 | 23 | 72 | 0.0 | 0.0 | 0.00 | 0.00 | 0.00 | 96 | 1007.2 |
| 20260509090041 | 23 | 72 | 0.0 | 0.0 | 0.00 | 0.00 | 0.00 | 95 | 1007.2 |
| 20260509084522 | 23 | 94 | 0.0 | 0.0 | 0.00 | 0.00 | 0.00 | 95 | 1007.3 |
| 20260509083034 | 23 | 178 | 0.0 | 0.0 | 0.00 | 0.00 | 0.00 | 95 | 1007.4 |
| 20260509081518 | 23 | 178 | 0.0 | 0.0 | 0.00 | 0.00 | 0.00 | 95 | 1007.5 |
| 20260509080012 | 23 | 178 | 0.0 | 1.6 | 0.00 | 0.00 | 0.00 | 95 | 1007.6 |
| 20260509074523 | 23 | 178 | 0.0 | 0.0 | 0.00 | 0.00 | 0.00 | 95 | 1007.9 |
| 20260509073008 | 23 | 178 | 0.0 | 0.0 | 0.00 | 0.00 | 0.00 | 95 | 1008.0 |